K3RTA-2 Weather Reports


Display with metric or nautical units.
time (UTC)temp
F
wind
direction
speed
MPH
gust
MPH
rain 1hr
in
rain 24hr
in
rain mn
in
humidity
%
barometer
mb
20260510030505 59 142 0.0 0.0 0.00 0.01 0.01 96 1010.2
20260510030004 59 142 0.0 0.0 0.00 0.01 0.01 95 1010.3
20260510025004 59 142 0.0 0.0 0.00 0.01 0.01 95 1010.3
20260510024504 59 142 0.0 0.0 0.00 0.01 0.01 95 1010.3
20260510023505 59 142 0.0 0.0 0.00 0.01 0.01 95 1010.2
20260510023004 59 142 0.0 0.0 0.00 0.01 0.01 95 1010.3
20260510022504 59 142 0.0 0.0 0.00 0.01 0.01 95 1010.3
20260510022004 59 142 0.0 0.0 0.00 0.01 0.01 95 1010.3
20260510021505 60 142 0.0 0.0 0.00 0.01 0.01 94 1010.3
20260510021004 60 142 0.0 0.0 0.00 0.01 0.01 94 1010.4
20260510020504 60 142 0.0 0.0 0.00 0.01 0.01 94 1010.3
20260510020005 60 142 0.0 0.0 0.00 0.01 0.01 94 1010.4
20260510015003 60 142 0.0 0.0 0.00 0.01 0.01 93 1010.2
20260510014005 61 142 0.0 0.0 0.00 0.01 0.01 93 1010.2
20260510013504 61 142 0.0 0.0 0.00 0.01 0.01 93 1010.2
20260510013005 61 142 0.0 0.0 0.00 0.01 0.01 92 1010.2
20260510012505 61 142 0.0 0.0 0.00 0.01 0.01 92 1010.2
20260510012004 61 142 0.0 0.0 0.00 0.01 0.01 91 1010.1
20260510011504 61 142 0.0 0.0 0.00 0.01 0.01 90 1010.1
20260510011005 62 142 0.0 0.0 0.00 0.01 0.01 89 1010.1
20260510010504 62 142 0.0 0.0 0.00 0.01 0.01 89 1009.9
20260510010004 62 142 0.0 0.0 0.00 0.01 0.01 89 1010.0
20260510005503 62 142 0.0 0.0 0.00 0.01 0.01 89 1009.9
20260510004505 63 142 0.0 0.0 0.00 0.01 0.01 88 1009.9
20260510004004 63 142 0.0 0.0 0.00 0.01 0.01 87 1009.8
20260510003504 64 142 0.0 0.0 0.00 0.01 0.01 86 1009.8
20260510003004 64 142 0.0 0.0 0.00 0.01 0.01 84 1009.8
20260510002005 65 142 0.0 0.0 0.00 0.01 0.01 83 1009.7
20260510001504 65 142 0.0 0.0 0.00 0.01 0.01 82 1009.6
20260510001005 66 142 0.0 0.0 0.00 0.01 0.01 81 1009.6
20260510000504 66 142 0.0 0.0 0.00 0.01 0.01 81 1009.5
20260510000004 66 142 0.0 0.0 0.00 0.01 0.01 79 1009.5
20260509235504 67 142 0.0 0.0 0.00 0.01 0.01 77 1009.4
20260509234004 69 142 0.0 0.0 0.00 0.01 0.01 73 1009.2
20260509233504 69 142 0.0 1.0 0.00 0.01 0.01 71 1009.1
20260509233005 69 142 0.0 1.0 0.00 0.01 0.01 70 1009.2
20260509232004 70 141 0.0 2.0 0.00 0.01 0.01 72 1009.1
20260509231505 70 161 0.0 2.0 0.00 0.01 0.01 73 1009.0
20260509230004 71 227 0.0 2.0 0.00 0.01 0.01 73 1008.8
20260509225504 71 129 0.0 3.0 0.00 0.01 0.01 72 1008.8
20260509225004 71 158 1.0 3.0 0.00 0.01 0.01 73 1008.7
20260509224504 71 113 0.0 3.0 0.00 0.01 0.01 74 1008.6
20260509224004 71 169 0.0 3.0 0.00 0.01 0.01 74 1008.6
20260509223504 71 179 1.0 3.0 0.00 0.01 0.01 73 1008.7
20260509222504 72 139 0.0 2.0 0.00 0.01 0.01 73 1008.7
20260509222005 72 111 0.0 3.0 0.00 0.01 0.01 73 1008.8
20260509221505 72 145 1.0 3.0 0.00 0.01 0.01 73 1008.8
20260509221005 72 78 0.0 3.0 0.00 0.01 0.01 73 1008.8
20260509220504 72 155 1.0 3.0 0.00 0.01 0.01 74 1008.9
20260509220004 72 163 0.0 5.0 0.00 0.01 0.01 74 1009.0
20260509215504 72 240 0.0 5.0 0.00 0.01 0.01 73 1008.9
20260509215004 73 218 1.0 5.0 0.00 0.01 0.01 74 1008.8
20260509214505 72 152 1.0 6.0 0.00 0.01 0.01 75 1008.8
20260509213504 71 177 1.0 5.0 0.00 0.01 0.01 75 1008.7
20260509213004 71 210 1.0 3.0 0.00 0.01 0.01 75 1008.8
20260509212504 71 173 0.0 3.0 0.00 0.01 0.01 76 1008.8
20260509212004 71 178 1.0 3.0 0.00 0.01 0.01 75 1008.9
20260509211505 71 148 2.0 6.0 0.00 0.01 0.01 75 1008.8
20260509211004 70 163 2.0 6.0 0.00 0.01 0.01 76 1008.9
20260509210504 70 187 1.0 7.0 0.00 0.01 0.01 77 1008.9
20260509210004 70 163 3.0 10.0 0.00 0.01 0.01 77 1009.0
20260509205504 71 182 2.0 10.0 0.00 0.01 0.01 76 1008.9
20260509205005 71 149 3.0 12.0 0.00 0.01 0.01 76 1008.9
20260509204004 72 160 3.0 8.0 0.00 0.01 0.01 74 1008.9
20260509203505 72 189 2.0 10.0 0.00 0.01 0.01 74 1008.9
20260509203004 72 153 3.0 10.0 0.00 0.01 0.01 76 1008.9
20260509202005 72 155 4.0 7.0 0.00 0.01 0.01 76 1009.3
20260509201504 72 157 2.0 8.0 0.00 0.01 0.01 76 1009.4
20260509201005 72 157 3.0 8.0 0.00 0.01 0.01 75 1009.5
20260509200004 72 142 1.0 5.0 0.00 0.01 0.01 72 1009.6
20260509195504 73 173 2.0 5.0 0.00 0.01 0.01 69 1009.8
20260509195004 74 152 2.0 8.0 0.00 0.01 0.01 71 1009.9
20260509194504 73 222 2.0 10.0 0.00 0.01 0.01 72 1009.8
20260509194004 73 175 4.0 10.0 0.00 0.01 0.01 71 1009.9
20260509193004 72 203 2.0 10.0 0.00 0.01 0.01 75 1010.2
20260509192505 71 154 3.0 10.0 0.00 0.01 0.01 76 1010.2
20260509192006 71 204 3.0 14.0 0.00 0.01 0.01 75 1010.3
20260509190504 71 185 3.0 8.0 0.00 0.01 0.01 75 1010.4
20260509190004 71 283 2.0 7.0 0.00 0.01 0.01 77 1010.4
20260509185504 71 145 2.0 7.0 0.00 0.01 0.01 78 1010.6
20260509185005 70 163 2.0 7.0 0.00 0.01 0.01 80 1010.7
20260509184505 69 187 2.0 9.0 0.00 0.01 0.01 82 1010.7
20260509184004 68 159 2.0 9.0 0.01 0.01 0.01 82 1010.8
20260509183505 68 139 2.0 7.0 0.01 0.01 0.01 83 1010.8
20260509183004 68 141 2.0 7.0 0.01 0.01 0.01 84 1011.0
20260509182504 67 164 2.0 7.0 0.01 0.01 0.01 86 1011.0
20260509181504 66 163 2.0 6.0 0.01 0.01 0.01 87 1011.1
20260509180504 65 205 1.0 3.0 0.01 0.01 0.01 88 1011.2
20260509180005 64 172 1.0 5.0 0.01 0.01 0.01 88 1011.2
20260509174505 65 194 1.0 5.0 0.01 0.01 0.01 87 1011.3
20260509174004 65 229 0.0 9.0 0.00 0.00 0.00 86 1011.3
20260509173504 66 190 3.0 9.0 0.00 0.00 0.00 83 1011.3
20260509173004 67 197 2.0 8.0 0.00 0.00 0.00 82 1011.2
20260509172504 68 198 2.0 8.0 0.00 0.00 0.00 80 1011.2
20260509172004 69 214 2.0 10.0 0.00 0.00 0.00 76 1011.1
20260509170004 71 201 5.0 12.0 0.00 0.00 0.00 71 1010.7
20260509165504 71 188 4.0 9.0 0.00 0.00 0.00 71 1011.1
20260509165005 71 166 3.0 8.0 0.00 0.00 0.00 65 1011.2
20260509164504 71 158 3.0 7.0 0.00 0.00 0.00 58 1011.2
20260509163503 72 261 2.0 7.0 0.00 0.00 0.00 59 1011.3
20260509163004 72 171 3.0 8.0 0.00 0.00 0.00 58 1011.3
20260509162504 73 193 3.0 8.0 0.00 0.00 0.00 56 1011.3
20260509162004 73 211 3.0 8.0 0.00 0.00 0.00 55 1011.1
20260509161004 73 179 2.0 7.0 0.00 0.00 0.00 55 1011.2
20260509160504 73 247 2.0 7.0 0.00 0.00 0.00 57 1011.3
20260509160005 73 166 2.0 14.0 0.00 0.00 0.00 56 1011.3
20260509155005 72 216 3.0 14.0 0.00 0.00 0.00 57 1011.8
20260509154505 72 254 3.0 7.0 0.00 0.00 0.00 57 1011.9
20260509154004 72 208 3.0 8.0 0.00 0.00 0.00 56 1012.1
20260509153004 72 172 2.0 8.0 0.00 0.00 0.00 58 1012.4
20260509152505 71 201 3.0 8.0 0.00 0.00 0.00 59 1012.5
20260509152003 71 233 3.0 7.0 0.00 0.00 0.00 58 1012.6
20260509151004 72 166 1.0 8.0 0.00 0.00 0.00 58 1012.5
20260509150503 72 204 2.0 9.0 0.00 0.00 0.00 58 1012.6
20260509150004 72 198 3.0 9.0 0.00 0.00 0.00 59 1012.7
20260509145504 71 270 2.0 12.0 0.00 0.00 0.00 61 1012.8
20260509145004 71 179 3.0 12.0 0.00 0.00 0.00 60 1012.7
20260509144504 71 172 2.0 9.0 0.00 0.00 0.00 63 1012.8
20260509144004 71 149 1.0 12.0 0.00 0.00 0.00 63 1012.8
20260509143504 71 186 3.0 12.0 0.00 0.00 0.00 62 1012.8
20260509143004 71 243 3.0 10.0 0.00 0.00 0.00 62 1012.8
20260509142504 71 258 3.0 10.0 0.00 0.00 0.00 61 1012.8
20260509142003 72 236 4.0 10.0 0.00 0.00 0.00 61 1012.8
20260509141005 71 173 3.0 14.0 0.00 0.00 0.00 62 1012.7
20260509140504 71 157 3.0 14.0 0.00 0.00 0.00 62 1012.8
20260509135004 70 232 0.0 6.0 0.00 0.00 0.00 64 1012.8
20260509134504 70 209 2.0 6.0 0.00 0.00 0.00 65 1012.9
20260509134004 69 227 1.0 9.0 0.00 0.00 0.00 65 1012.9
20260509133504 69 229 3.0 9.0 0.00 0.00 0.00 65 1012.9
20260509133005 69 229 2.0 8.0 0.00 0.00 0.00 66 1013.0
20260509132503 68 165 2.0 8.0 0.00 0.00 0.00 66 1012.9
20260509131504 67 198 2.0 7.0 0.00 0.00 0.00 67 1013.0
20260509131003 67 169 1.0 6.0 0.00 0.00 0.00 67 1013.0
20260509130503 67 282 1.0 10.0 0.00 0.00 0.00 68 1013.0
20260509130004 67 222 1.0 10.0 0.00 0.00 0.00 68 1013.1
20260509125504 67 200 2.0 10.0 0.00 0.00 0.00 68 1013.1
20260509125004 67 229 1.0 7.0 0.00 0.00 0.00 69 1013.1
20260509124505 66 216 3.0 9.0 0.00 0.00 0.00 69 1013.2
20260509124004 66 192 3.0 9.0 0.00 0.00 0.00 70 1013.2
20260509123504 66 137 1.0 3.0 0.00 0.00 0.00 71 1013.1
20260509122504 65 264 3.0 10.0 0.00 0.00 0.00 72 1013.0
20260509122005 65 196 0.0 5.0 0.00 0.00 0.00 74 1013.1
20260509120503 63 226 2.0 12.0 0.00 0.00 0.00 76 1013.2
20260509120005 62 195 1.0 12.0 0.00 0.00 0.00 78 1013.3
20260509115506 62 292 1.0 8.0 0.00 0.00 0.00 79 1013.3
20260509115004 61 114 2.0 6.0 0.00 0.00 0.00 81 1013.3
20260509114004 60 183 1.0 3.0 0.00 0.00 0.00 83 1013.2
20260509113504 59 178 0.0 3.0 0.00 0.00 0.00 85 1013.3
20260509112504 58 222 1.0 7.0 0.00 0.00 0.00 85 1013.3
20260509111505 58 235 1.0 7.0 0.00 0.00 0.00 85 1013.3
20260509111004 57 239 0.0 3.0 0.00 0.00 0.00 86 1013.4
20260509110504 57 148 1.0 3.0 0.00 0.00 0.00 86 1013.4
20260509110004 57 230 0.0 5.0 0.00 0.00 0.00 86 1013.3
20260509105504 57 202 0.0 5.0 0.00 0.00 0.00 86 1013.5
20260509105004 56 224 0.0 3.0 0.00 0.00 0.00 86 1013.4
20260509104503 56 227 1.0 3.0 0.00 0.00 0.00 86 1013.4
20260509103504 56 158 1.0 6.0 0.00 0.00 0.00 86 1013.3
20260509103004 56 151 1.0 10.0 0.00 0.00 0.00 86 1013.3
20260509102004 56 173 0.0 3.0 0.00 0.00 0.00 85 1013.4
20260509101504 56 210 0.0 8.0 0.00 0.00 0.00 85 1013.4
20260509101004 56 205 0.0 8.0 0.00 0.00 0.00 85 1013.3
20260509100504 55 238 1.0 5.0 0.00 0.00 0.00 85 1013.2
20260509100004 56 197 0.0 6.0 0.00 0.00 0.00 85 1013.2
20260509095504 55 200 1.0 6.0 0.00 0.00 0.00 85 1013.3
20260509095004 55 194 1.0 6.0 0.00 0.00 0.00 84 1013.3
20260509094504 55 161 0.0 5.0 0.00 0.00 0.00 84 1013.3
20260509094005 55 189 1.0 5.0 0.00 0.00 0.00 84 1013.3
20260509093003 55 214 0.0 3.0 0.00 0.00 0.00 83 1013.2
20260509092504 56 234 1.0 3.0 0.00 0.00 0.00 83 1013.2
20260509092004 56 213 0.0 3.0 0.00 0.00 0.00 82 1013.2
20260509091504 56 181 0.0 3.0 0.00 0.00 0.00 82 1013.2
20260509091004 56 163 1.0 3.0 0.00 0.00 0.00 82 1013.2
20260509090505 56 215 0.0 1.0 0.00 0.00 0.00 82 1013.2
20260509085504 56 168 0.0 3.0 0.00 0.00 0.00 81 1013.3
20260509085004 56 230 0.0 3.0 0.00 0.00 0.00 81 1013.4
20260509084005 56 218 0.0 5.0 0.00 0.00 0.00 80 1013.3
20260509083504 56 188 1.0 8.0 0.00 0.00 0.00 80 1013.4
20260509083004 56 227 0.0 8.0 0.00 0.00 0.00 80 1013.4
20260509082505 56 146 0.0 3.0 0.00 0.00 0.00 80 1013.4
20260509082003 56 244 1.0 8.0 0.00 0.00 0.00 80 1013.3
20260509081504 56 119 1.0 8.0 0.00 0.00 0.00 80 1013.3
20260509081004 56 226 1.0 8.0 0.00 0.00 0.00 80 1013.4
20260509075505 56 163 0.0 6.0 0.00 0.00 0.00 79 1013.5
20260509075003 55 214 0.0 6.0 0.00 0.00 0.00 79 1013.6
20260509074503 55 203 0.0 2.0 0.00 0.00 0.00 78 1013.6
20260509074004 55 227 1.0 6.0 0.00 0.00 0.00 78 1013.7
20260509073504 55 205 1.0 6.0 0.00 0.00 0.00 78 1013.8
20260509073004 55 233 1.0 8.0 0.00 0.00 0.00 78 1013.8
20260509072504 55 176 1.0 8.0 0.00 0.00 0.00 78 1013.7
20260509071505 55 256 1.0 3.0 0.00 0.00 0.00 77 1013.9
20260509071004 55 237 0.0 3.0 0.00 0.00 0.00 77 1013.8
20260509070504 55 163 0.0 7.0 0.00 0.00 0.00 77 1013.7
20260509070003 54 224 2.0 7.0 0.00 0.00 0.00 77 1013.7
20260509065504 54 183 0.0 5.0 0.00 0.00 0.00 77 1013.6
20260509065004 54 155 1.0 5.0 0.00 0.00 0.00 77 1013.7
20260509064504 54 229 0.0 3.0 0.00 0.00 0.00 77 1013.8
20260509064005 54 176 1.0 5.0 0.00 0.00 0.00 76 1013.8
20260509062504 54 200 0.0 3.0 0.00 0.00 0.00 75 1013.8
20260509062004 54 216 1.0 5.0 0.00 0.00 0.00 75 1013.9
20260509061004 54 227 1.0 6.0 0.00 0.00 0.00 74 1013.8
20260509060505 54 256 1.0 6.0 0.00 0.00 0.00 74 1013.8
20260509060004 54 228 1.0 6.0 0.00 0.00 0.00 74 1013.8
20260509055504 54 151 0.0 3.0 0.00 0.00 0.00 74 1013.8
20260509054504 54 228 1.0 7.0 0.00 0.00 0.00 74 1013.8
20260509053504 54 236 0.0 5.0 0.00 0.00 0.00 73 1013.8
20260509053004 54 213 1.0 5.0 0.00 0.00 0.00 73 1013.9
20260509052504 54 215 0.0 7.0 0.00 0.00 0.00 73 1014.0
20260509051504 54 170 1.0 6.0 0.00 0.00 0.00 73 1013.9
20260509051004 54 153 0.0 3.0 0.00 0.00 0.00 72 1014.0
20260509050504 54 149 0.0 5.0 0.00 0.00 0.00 72 1014.0
20260509050004 54 173 1.0 5.0 0.00 0.00 0.00 72 1014.1
20260509045504 54 226 1.0 3.0 0.00 0.00 0.00 72 1014.0
20260509045004 54 217 0.0 3.0 0.00 0.00 0.00 72 1014.1
20260509044504 54 214 0.0 3.0 0.00 0.00 0.00 72 1014.2
20260509044003 54 215 0.0 3.0 0.00 0.00 0.00 72 1014.2
20260509043503 54 223 0.0 3.0 0.00 0.00 0.00 71 1014.2
20260509043003 54 177 1.0 3.0 0.00 0.01 0.00 71 1014.3
20260509042505 54 154 1.0 3.0 0.00 0.01 0.00 71 1014.2
20260509042004 54 215 0.0 6.0 0.00 0.01 0.00 71 1014.4
20260509041504 54 229 1.0 6.0 0.00 0.01 0.00 71 1014.5
20260509041004 54 244 1.0 3.0 0.00 0.01 0.00 70 1014.5
20260509040504 54 213 0.0 2.0 0.00 0.01 0.00 70 1014.5
20260509035505 54 178 0.0 5.0 0.00 0.01 0.00 69 1014.4
20260509035005 54 174 0.0 5.0 0.00 0.01 0.00 69 1014.4
20260509034504 54 228 0.0 3.0 0.00 0.01 0.00 69 1014.4
20260509034004 54 222 0.0 2.0 0.00 0.01 0.00 69 1014.5
20260509033504 54 291 0.0 3.0 0.00 0.01 0.00 68 1014.6
20260509032004 54 186 1.0 3.0 0.00 0.01 0.00 68 1014.5